DELTA 1 DEB

Satellite information

Favourite Embed

Satellite Type and Status

DEBRISIN ORBIT

Key statistics

Satellite DELTA 1 DEB at a glance.

Uptime

18040

Days in orbit

Revolutions

≈ 13.1

Per day

Orbit

SSO

Sun Synchronous Orbit

Inclination

101.6

Latest

Satellite identification and parameters

Extended collection of information and parameters for DELTA 1 DEB.

Object identification

Identified? True

Debris? True

Object name: DELTA 1 DEB

International designator: 1976-077AJ

Object number (NORAD): 10713

Object ID (CCSDS): 10713

Country: UNITED STATES OF AMERICA (US)

Current information (Y/N): Y

RCS size: SMALL

Orbital parameters

Period: 110.166 minutes

Inclination: 101.5566 deg

SMA: 7612.481 km

Apoapsis: 1334.306 km

Periapsis: 1134.387 km

RAAN: 167.1918 deg

Eccentricy: 0.01313095

Argument of periapsis: 276.6075 deg

Mean anomaly: 138.1856 deg

Mean motion: 13.07113769 rev/day

Mean motion (dot): 0.00001243 rev/day2

B* drag term: 0.0037254 1/REarth

Two-line elements (TLE)

Creation date: Dec. 18, 2025, 8:02 p.m.

Reference frame: TEME

Reference center: EARTH

Epoch: Dec. 18, 2025, 11:15 a.m. UTC

TLE line 0: 0 DELTA 1 DEB

TLE line 1: 1 10713U 76077AJ 25352.46875736 .00001243 00000-0 37254-2 0 9995

TLE line 2: 2 10713 101.5566 167.1918 0131310 276.6075 138.1856 13.07113769303964

Live tracking on map

Real-time ground track for satellite DELTA 1 DEB.

In-orbit conjunctions

A list of the most updated potential collisions computed for object DELTA 1 DEB.

Target Orbit TCA Probability of collision Miss distance Type
COSMOS 397 DEB LEO 2025-09-22 08:49:09 0.000117913 238.0 (m) DEBRIS
METEOR 3-5 LEO 2025-01-11 07:25:25 0.003293187 24.0 (m) PAYLOAD

Associated space launch

Meteorological satellite using radiometric imaging

DELTA 1 DEB was lifted into orbit during the mission ‘Delta 2310 | NOAA 5’, on board a Delta 2310 space rocket.

The launch took place on July 29, 1976, 5:07 p.m. from Space Launch Complex 2W.

For more information about the launch, click the button.

Launch to space Delta 2310 | NOAA 5
Delta 2310 | NOAA 5

Agency: N/A

Status: Launch Successful

Launch date: July 29, 1976, 5:07 p.m. UTC

Rocket: Delta 2310

Launch pad: Space Launch Complex 2W

Location: Vandenberg SFB, CA, USA

...

Latest news about this satellite

There are no fresh news available about this satellite. Check back as we update our databases every day.


Newsletter sign-up

Weekly statistics, charts and insights to help you stay on top of the space industry.